STARLINK-35155, 65935

Orbit data source: Space-Track

STARLINK-35155, 65935 is a payload satellite owned by SpaceX/Seattle (US) in LEO that was launched on Wed, 08 Oct 2025 UTC via an FALCON 9 launch vehicle from the Air Force Western Test Range (AFWTR). Payload-class satellites include a variety of spacecraft equipped with specific instruments for various scientific and technological missions. These include communications satellites like Starlink; space stations such as the ISS; scientific satellites like the Hubble; Earth observation satellites from companies like Planet Labs, Umbra, and HawkEye 360; GPS; miniature CubeSats for education and research; and military/defense satellites.

Loading next visibility...
Identifier
65935, 2025-225AB
Orbit
LEO
Country
Flag of USUS
Related business
Manufacturer
SpaceX/Seattle
Mission
Operational Commercial Communications
Bus & Motor
STARLINK V2MO, Unknown motor
Mass
575 kg wet, ~530 kg dry
Launch date (UTC)
2025-10-08 (8 months ago)
Launch vehicle
FALCON 9
Launch site
Air Force Western Test Range (AFWTR)
Object type
Payload
Rocket body
Debris
Shape & HBR
Box + 2 Pan, 17.7 m
Radar Cross Section
36.964 m², Large (>1 m²)

Expand to show TLE details & history
Last TLE update: 7 hours ago

TLE from 7 hours ago
0 STARLINK-35155
1 65935U 25225AB  26151.50002315  .00039913  00000-0  11884-2 0  9994
2 65935  53.1589 141.1481 0001364  93.8363 319.6458 15.34340418  5810
Epoch: 2026-05-31T12:00Z
TLE epoch observation values (Epoch: 2026-05-31T12:00:02.000Z)
Latitude
40.15284°
Longitude
111.08433°
Altitude
465.79 km
Speed
7.639 km/s
True Right ascension
12h 00m 22s
True Declination
39° 58' 34"
Sunlit
Object was in daylight at epoch
Visualization orbit readout
Latitude
Unknown
Longitude
Unknown
Altitude
Unknown
Speed
Unknown
Apparent Right ascension
Unknown
Apparent Declination
Unknown
Sunlit
N/A
Visualization observer readout
Local Sidereal Time
04:59:25
Azimuth
Unknown
Elevation
Unknown
Doppler factor
Unknown
Orbital elements
Apogee altitude
464.071 km
Perigee altitude
462.204 km
Semi-major axis
6,841.274 km
Eccentricity
0.00014
Inclination
53.1589°
RAAN
141.1481°
Arg. of periapsis
93.8363°
True anomaly
319.63568°
Mean anomaly
319.6458°
Eccentric anomaly
319.64074°
Mean motion
3.83564 °/min
Orbital period
93.86 mins
BSTAR
0.0011884
Loading maneuver chart data...
Computing Atmospheric mass density...
Loading historical data...
Loading historical data...
Loading historical data...
Loading historical data...
Loading historical data...
Loading historical data...
Loading historical data...

Documentation

Showing up to 5 results
|